Location: Boyle Investment Company Lake Dam
(35.0801°N, 89.7334°W)
Time: 04:49:06
(UTC+00:00)

Daily predictions for brighter satellites

Satellite Brightness Start Highest point End
(mag) Time Altitude Azimuth Time Altitude Azimuth Time Altitude Azimuth
Cosmos 2237 Rocket 2.2 00:54:02 10° SSW 00:59:40 73° ESE 01:05:21 10° NNE
SAR-Lupe-1 4.4 00:56:46 10° S 01:00:18 70° WSW 01:03:51 10° NNW
Cosmos 1400 Rocket 4.1 00:58:06 10° SE 01:00:27 17° E 01:02:49 10° NE
Cosmos 1980 3.7 00:55:56 10° SSW 01:01:33 82° ESE 01:07:13 10° NNE
Helios 1A Rocket 4.0 00:59:51 10° ENE 01:01:40 14° E 01:03:27 10° SE
Meteor 2-19 Rocket 4.4 00:58:31 10° N 01:04:40 78° E 01:10:46 10° S
Cosmos 44 4.3 01:01:17 10° SSE 01:05:17 26° ESE 01:09:30 10° NE
CARTOSAT-1 4.4 01:02:30 10° S 01:06:34 52° W 01:10:41 10° NNW
RESURS DK-1 2.2 01:05:16 10° SSW 01:09:10 72° ESE 01:13:07 10° NNE
CSL-04 Rocket 4.5 01:04:21 10° SE 01:09:16 34° ENE 01:14:12 10° N
Meteor 1-31 Rocket 4.2 01:08:41 10° ESE 01:11:08 18° ENE 01:13:35 10° NNE
SL-4 R/B 3.6 01:09:49 10° SSE 01:11:32 13° SE 01:13:15 10° E
Cosmos 494 Rocket 4.1 01:06:27 10° NNW 01:11:40 83° WSW 01:16:52 10° SSE
Cosmos 2112 Rocket 4.2 01:08:48 10° NNW 01:13:58 75° WSW 01:19:05 10° S
SPOT 5 3.3 01:11:31 10° SE 01:15:43 36° ENE 01:19:46 10° N
SL-8 Rocket 4.0 01:13:53 10° S 01:20:06 76° E 01:26:24 10° N
Milstar 3 4.5 01:18:52 10° S 01:23:55 19° SE 01:29:08 12° ESE
Timation 2 Rocket 4.3 01:19:35 10° NNW 01:25:56 57° ENE 01:32:30 10° SE
Cosmos 1943 Rocket 2.2 01:21:56 10° NNW 01:27:37 86° ENE 01:33:14 10° SSE
Terra 3.3 01:27:26 14° ESE 01:29:46 20° ENE 01:33:06 10° NNE
Cosmos 2341 Rocket 4.0 01:24:12 10° S 01:30:26 88° E 01:36:46 10° N
NOSS 3 (A) 4.4 01:33:41 10° S 01:35:09 29° SSE 01:35:09 29° SSE
Cosmos 2366 rocket 4.0 01:31:05 10° S 01:37:14 86° W 01:43:24 10° N
Meteor 2-14 Rocket 4.5 01:34:06 10° N 01:40:11 63° E 01:46:14 10° SSE
CZ-4B R/B 4.0 01:43:20 19° ESE 01:46:28 33° ENE 01:51:26 10° N
Cosmos 1733 Rocket 3.0 01:42:17 10° S 01:46:38 88° E 01:51:02 10° N
Resurs 01 Rocket 3.8 01:43:49 10° SSW 01:47:25 25° W 01:51:02 10° NW
Cosmos 2242 Rocket 3.7 01:44:32 10° N 01:48:53 54° E 01:51:49 19° SSE
Cosmos 1048 Rocket 4.1 01:45:47 10° NNW 01:50:56 76° WSW 01:56:08 10° S
Cosmos 2278 Rocket 2.3 01:45:18 10° NNW 01:50:57 75° WSW 01:56:27 11° SSE
Cosmos 1025 Rocket 4.2 01:48:24 10° NNE 01:51:49 23° ENE 01:52:19 23° E
CZ-4 R/B 1.1 01:54:18 24° SSE 01:56:26 69° ENE 02:00:08 10° N
USA 32 4.1 01:53:48 10° S 01:59:01 83° W 02:04:16 10° N
CSL-04 Debris 4.2 01:59:27 12° SSE 02:04:31 83° WSW 02:09:55 10° NNW
OAO 3 Rocket 3.0 02:01:39 10° W 02:06:18 86° S 02:08:13 36° E
Aureole 3 4.2 02:02:29 10° N 02:07:58 80° E 02:13:05 16° S
CZ-4B R/B 4.0 02:06:03 21° S 02:08:24 65° W 02:12:12 10° NNW
SL-08 R/B 3.4 02:06:38 10° NNE 02:11:29 58° E 02:14:33 22° S
Cosmos 2239 Rocket 4.4 02:06:12 10° S 02:12:19 70° E 02:18:30 10° NNE
Cosmos 1821 Rocket 4.3 02:06:50 10° SSW 02:13:01 68° W 02:19:21 10° N
Cosmos 614 Rocket 3.8 02:09:09 10° NNW 02:14:18 89° ENE 02:16:51 30° SSE
Meteor 2-8 Rocket 4.3 02:08:48 10° S 02:14:50 73° E 02:20:52 10° N
SL-16 R/B 2.1 02:09:30 10° SSW 02:15:09 83° ESE 02:20:50 10° NNE
MetOp-B 4.1 02:13:57 33° SE 02:16:18 63° ENE 02:21:36 10° N
ERS-1 Rocket 2.8 02:15:33 33° SSE 02:17:48 75° ENE 02:22:48 10° N
Cosmos 2292 Rocket 4.0 02:14:54 10° N 02:17:46 33° NE 02:17:46 33° NE
Cosmos 2298 Rocket 3.9 02:15:04 10° S 02:20:18 68° ESE 02:25:35 10° NNE
TIMED 4.3 02:19:12 10° NNW 02:23:27 89° ENE 02:24:21 55° SSE
OAO 3 Copernicus 4.2 02:20:10 10° W 02:25:11 79° S 02:26:20 53° ESE
OAO 2 Rocket 3.2 02:22:06 10° W 02:27:17 89° NNE 02:28:40 49° E
USA 234 3.9 02:22:50 10° NE 02:29:12 58° NW 02:35:35 10° WSW
PAYLOAD B 4.2 02:27:34 29° S 02:30:29 78° WSW 02:35:59 10° NNW
USA 59 Rocket 0.0 02:27:39 10° NNW 02:31:32 85° ENE 02:32:15 64° SE
Cosmos 2221 Rocket 4.1 02:27:52 10° N 02:31:36 43° ENE 02:31:36 43° ENE
YAOGAN 11 4.0 02:29:26 10° NNE 02:33:32 67° E 02:33:32 67° E
Cosmos 1000 Rocket 4.3 02:30:59 10° N 02:37:08 76° E 02:39:10 44° SSE
Cosmos 1346 Rocket 3.1 02:35:14 10° N 02:38:04 54° N 02:38:04 54° N
Meteor 2-16 Rocket 4.3 02:34:57 10° N 02:41:07 87° E 02:43:19 42° S
Spot 2 Rocket 3.5 02:42:40 59° E 02:42:46 59° ENE 02:47:41 10° N
Cosmos 1656 Rocket 3.5 02:37:22 10° NNW 02:42:53 83° ENE 02:43:52 62° SSE
Geosat 4.3 02:39:16 10° NNE 02:44:14 66° WNW 02:49:10 10° SW
SL-4 R/B 3.0 02:44:42 10° WSW 02:47:05 36° WSW 02:47:05 36° WSW
Cosmos 2285 Rocket 4.2 02:42:24 10° SSW 02:48:45 71° WNW 02:55:06 10° NNE
Okean-O 3.0 02:53:58 54° NNE 02:53:58 54° NNE 02:57:28 10° N
BREEZE-M DEB (TANK) 4.2 02:50:53 10° NW 02:54:32 43° NW 02:54:32 43° NW
Cosmos 1674 Rocket 4.4 02:53:55 10° NNW 02:58:03 44° W 02:58:33 42° WSW
Cosmos 1908 Rocket 4.4 02:59:30 43° WSW 03:00:09 46° W 03:04:19 10° N
Okean O Rocket 2.1 03:03:31 54° NNW 03:03:31 54° NNW 03:06:54 10° NNW
Gbstr 26 Del rocket 3.6 02:58:45 10° WSW 03:04:11 63° NW 03:04:53 56° N
Terra 3.0 03:06:03 32° WSW 03:07:00 35° W 03:11:18 10° NNW
SL-08 R/B 4.4 03:02:27 10° N 03:08:43 86° W 03:09:31 70° S
Cosmos 2297 4.1 03:06:36 10° NNW 03:11:35 54° NE 03:11:35 54° NE
Cosmos 2369 Rocket 2.4 03:12:24 10° NNW 03:17:12 62° NNE 03:17:12 62° NNE
SPOT 3 Rocket 4.3 03:22:48 46° NNE 03:22:48 46° NNE 03:26:30 10° N
ASTEX 1 4.5 03:26:48 39° W 03:26:48 39° W 03:31:20 10° NNW
Cosmos 1943 3.4 03:27:20 66° NW 03:27:20 66° NW 03:32:41 10° NNE
NOSS 3-1 (C) 4.2 03:21:28 10° NNW 03:28:59 64° ENE 03:29:48 61° E
Milstar 3 4.3 03:57:45 10° WSW 04:20:09 18° E 04:24:12 10° E
NOSS 3-1 (A) 4.4 04:20:34 10° NNW 04:27:02 62° NNE 04:27:02 62° NNE
COSMOS 2455 4.3 04:26:55 10° NNW 04:30:05 32° NNW 04:30:05 32° NNW
ATLAS 2AS CENTAUR R/B 4.2 05:31:51 30° NNE 05:31:51 30° NNE 05:35:09 10° NNE
ACS3 Solar Sail 3.7 06:26:53 10° NNE 06:29:12 23° NE 06:29:12 23° NE
ATLAS 3B R/B 3.9 06:46:15 10° NNW 06:50:58 40° NNW 06:50:58 40° NNW
Cosmos 2360 Rocket 4.5 07:38:47 10° N 07:42:54 20° ENE 07:47:00 10° ESE
Cosmos 2082 Rocket 4.2 07:46:37 20° NNW 07:46:37 20° NNW 07:49:01 10° N
Cosmos 2333 Rocket 3.6 07:40:06 10° N 07:44:45 35° NE 07:44:45 35° NE
ADEOS Rocket 3.7 07:42:01 10° NNE 07:49:37 66° E 07:49:37 66° E
Resurs 1-4 Rocket 3.7 07:52:39 10° NE 07:56:27 28° E 07:56:27 28° E
USA 281 3.4 07:58:48 66° NNE 07:58:48 66° NNE 08:04:44 10° NNW
Cosmos 2322 Rocket 3.9 07:53:44 10° N 07:58:36 29° ENE 08:01:23 20° ESE
H-2A R/B 3.8 08:05:28 10° NE 08:09:44 25° E 08:09:58 25° E
Cosmos 2219 Rocket 4.5 08:07:50 10° N 08:12:03 21° ENE 08:16:15 10° ESE
SL-16 R/B 3.2 08:08:20 10° NNW 08:11:55 40° N 08:11:55 40° N
ACS3 Solar Sail 3.4 08:09:44 10° NNW 08:12:45 23° NW 08:12:45 23° NW
Cosmos 2266 Rocket 3.9 08:31:49 10° N 08:37:12 68° NW 08:37:12 68° NW
Iridium 4 Rocket 4.1 08:41:06 45° N 08:41:06 45° N 08:44:32 10° N
Meteor 2-4 Rocket 4.2 08:40:30 48° ESE 08:41:14 51° E 08:46:23 10° NNE
IDEFIX/ARIANE 42P 4.4 08:37:51 10° NNW 08:40:08 20° NW 08:40:08 20° NW
USA 267 3.6 08:36:06 10° NE 08:42:24 51° NW 08:43:24 47° WNW
Envisat 3.2 08:37:37 10° NNE 08:41:55 64° N 08:41:55 64° N
Meteor 2-20 Rocket 4.3 08:45:21 77° S 08:45:50 90° ESE 08:51:53 10° N
ALOS 2.5 08:47:51 10° NNE 08:51:38 62° NNE 08:51:38 62° NNE
Meteor 1-27 Rocket 3.7 08:53:08 76° SSW 08:53:37 84° W 08:59:34 10° N
Cosmos 1655 Rocket 4.2 08:48:22 10° N 08:54:35 69° E 08:58:04 27° SSE
Cosmos 990 Rocket 3.9 08:49:41 10° NNW 08:54:50 82° ENE 08:55:11 76° SE
ADEOS II 2.1 08:53:44 10° NNE 08:58:59 76° ESE 08:59:43 64° SSE
Cosmos 841 Rocket 3.9 08:58:30 49° SE 08:59:26 57° ESE 09:04:29 10° NNE
ATLAS 5 CENTAUR R/B 2.9 09:05:36 55° SSW 09:06:48 79° ESE 09:20:27 10° NE
CZ-2D R/B 2.1 09:04:04 10° N 09:09:16 61° WNW 09:09:35 60° W
H-2A R/B 3.7 09:11:11 10° NE 09:14:38 28° E 09:16:49 17° SE
DELTA 2 R/B (1) 3.5 09:15:52 57° SSW 09:16:50 70° SSE 09:22:20 10° ENE
SL-16 R/B 4.0 09:11:40 10° SE 09:17:17 37° ENE 09:22:56 10° N
Cosmos 1354 Rocket 4.0 09:13:36 10° NNW 09:18:46 58° WSW 09:18:58 57° WSW
SL-4 R/B 3.0 09:19:25 12° NNW 09:22:42 41° NE 09:26:16 10° ESE
SL-14 R/B 4.2 09:23:07 28° SSE 09:24:45 45° E 09:28:29 10° NNE
Cosmos 2360 Rocket 2.3 09:21:40 10° NNW 09:27:09 52° WSW 09:29:01 37° SSW
Meteor 1-18 Rocket 4.3 09:24:32 24° S 09:27:59 75° E 09:33:31 10° NNE
Cosmos 1766 Rocket 3.4 09:24:38 10° NNW 09:28:55 66° W 09:29:26 60° SW
Cosmos 2333 Rocket 3.8 09:24:39 10° NW 09:26:40 19° WNW 09:26:40 19° WNW
Meteor 2-10 Rocket 4.1 09:26:52 10° N 09:31:59 60° E 09:37:16 10° SSE
Resurs 1-4 Rocket 3.0 09:32:21 10° N 09:36:52 29° WNW 09:37:30 29° W
CRYOSAT 2 4.2 09:34:39 30° S 09:37:01 70° W 09:41:54 10° N
CZ-2C R/B 4.0 09:33:11 10° NE 09:37:23 30° E 09:41:28 10° SSE
CZ-3 Stage 3 3.7 09:33:58 30° WSW 09:38:27 71° S 10:05:39 10° ESE
ISS -2.0 09:41:04 21° NW 09:41:20 21° NNW 09:44:00 10° NNE
Cosmos 1553 Rocket 3.9 09:38:05 23° SSW 09:42:02 72° W 09:48:18 10° N
Cosmos 2322 Rocket 2.7 09:37:34 10° NW 09:42:33 33° WSW 09:42:59 33° WSW
SL-08 RB Rocket 4.4 09:39:38 10° NNE 09:43:57 52° E 09:48:17 10° S
H-2A R/B 2.9 09:44:22 10° N 09:48:58 33° WNW 09:50:27 28° WSW
JB-3 4.4 09:50:03 42° WSW 09:50:07 42° W 09:53:33 10° NNW
Cosmos 1461 4.2 09:51:56 20° WNW 09:52:11 20° NW 09:54:59 10° N
DNEPR-1 R/B 4.4 09:49:52 10° NNW 09:55:43 76° WSW 10:02:52 10° SSE
Cosmos 2219 Rocket 2.3 09:50:48 10° NNW 09:56:11 48° WSW 10:01:36 10° S
H-2A R/B 4.5 10:01:10 11° WNW 10:01:10 11° WNW 10:01:22 10° NW
ARGOS 3.2 09:58:42 10° N 10:03:58 57° WNW 10:08:16 15° SSW
Cosmos 2227 Rocket 4.2 10:00:24 10° SSE 10:05:04 27° ESE 10:09:46 10° NE
SL-24 R/B 4.0 10:02:53 10° NNE 10:06:49 68° ESE 10:10:26 10° S
Cosmos 2084 Rocket 3.9 10:03:49 10° NW 10:07:43 36° WSW 10:11:37 10° S
EXPRESS MD2 3.5 10:08:07 22° S 10:09:16 35° SE 10:12:13 10° ENE
Cosmos 1151 Rocket 2.9 10:07:41 12° SSW 10:11:31 66° W 10:15:43 10° N
Cosmos 372 Rocket 4.3 10:08:06 10° NNW 10:12:54 41° WSW 10:17:39 10° S
Gbstr 26 Del rocket 2.5 10:09:58 10° NW 10:13:40 83° SW 10:17:38 10° SE
Cosmos 2315 Rocket 4.3 10:09:18 10° S 10:15:37 73° E 10:21:59 10° N
Cosmos 2322 3.8 10:11:48 10° NNW 10:17:33 85° ENE 10:23:12 10° SSE
USA 276 4.1 10:17:13 10° N 10:18:04 12° NE 10:18:58 10° ENE
Cosmos 1745 Rocket 4.0 10:12:44 10° N 10:18:55 88° E 10:25:02 10° S
Cosmos 1500 Rocket 3.5 10:17:56 10° N 10:22:21 89° W 10:26:47 10° S
Cosmos 1758 3.0 10:21:54 10° NNW 10:25:28 59° W 10:29:00 10° S
USA 307 2.5 10:27:45 13° SSW 10:29:36 47° SE 10:32:46 10° NE
Sich 1 3.7 10:28:09 10° NNW 10:31:49 31° W 10:35:27 10° SSW
PAYLOAD A 3.7 10:27:55 10° N 10:32:38 82° WNW 10:37:18 10° SSW
TSX-5 4.3 10:33:04 10° NNW 10:36:02 48° ENE 10:39:09 10° SE
Okean 3 Rocket 4.4 10:32:15 10° NNW 10:36:11 31° W 10:40:08 10° SSW
ADEOS II 4.0 10:35:59 10° NW 10:37:48 12° WNW 10:39:37 10° W
Cosmos 2297 Rocket 2.4 10:35:49 10° SW 10:41:18 52° WNW 10:46:49 10° N
Cosmos 858 Rocket 4.5 10:37:18 10° NNW 10:42:26 65° WSW 10:47:31 10° S
Cosmos 1743 Rocket 3.5 10:39:10 10° N 10:43:33 82° W 10:47:52 10° S
Cosmos 1805 Rocket 3.9 10:39:49 10° NNW 10:43:59 44° W 10:48:05 10° SSW
NOSS 0 Rocket 4.0 10:40:11 10° NNW 10:46:23 87° WSW 10:52:31 10° SSE
H-2A R/B 3.5 10:47:00 10° NNW 10:49:39 17° WNW 10:52:17 10° WSW
Cosmos 1340 Rocket 2.6 10:50:28 10° N 10:54:14 78° W 10:57:59 10° S
Cosmos 2263 Rocket 3.4 10:51:00 10° S 10:56:23 47° ESE 11:01:45 10° NE
COSMOS 2428 2.9 10:51:13 10° NNW 10:56:41 49° WSW 11:02:06 10° S
Cosmos 158 Rocket 4.4 10:51:46 10° SW 10:56:47 48° WNW 11:01:57 10° N
USA 234 3.4 10:51:34 10° SSE 10:57:55 54° SW 11:04:18 10° NW
CZ-3 R/B 3.0 10:51:27 10° W 11:10:44 52° SSW 11:16:56 10° SE
